CDT,Max TemperatureF,Mean TemperatureF,Min TemperatureF,Max Dew PointF,MeanDew PointF,Min DewpointF,Max Humidity, Mean Humidity, Min Humidity, Max Sea Level PressureIn, Mean Sea Level PressureIn, Min Sea Level PressureIn, Max VisibilityMiles, Mean VisibilityMiles, Min VisibilityMiles, Max Wind SpeedMPH, Mean Wind SpeedMPH, Max Gust SpeedMPH,PrecipitationIn, CloudCover, Events, WindDirDegrees
2013-3-1,66,44,23,18,14,9,64,34,12,30.35,30.28,30.23,10,10,10,20,3,29,0.00,0,,349
2013-3-2,68,47,26,27,20,12,59,38,19,30.48,30.38,30.30,10,10,10,12,2,17,0.00,0,,345
2013-3-3,77,54,32,25,20,18,64,31,11,30.29,30.10,29.92,10,10,10,21,6,28,0.00,0,,193
2013-3-4,80,63,46,37,26,16,62,27,9,29.94,29.87,29.79,10,10,10,14,7,21,0.00,0,,214
2013-3-5,68,50,33,37,21,10,62,33,15,30.44,30.31,29.90,10,10,5,32,13,44,0.00,0,,21
2013-3-6,62,48,33,14,10,5,35,22,12,30.44,30.33,30.21,10,10,10,16,4,25,0.00,0,,153
2013-3-7,68,56,44,52,34,12,77,45,25,30.20,30.14,30.08,10,10,8,18,7,28,0.00,0,,176
2013-3-8,69,64,60,59,57,54,88,77,60,30.12,30.04,29.96,10,10,7,18,13,25,0.00,7,,169
2013-3-9,80,68,57,61,51,32,88,57,25,29.95,29.82,29.69,10,10,8,20,13,26,0.01,4,Rain,194
2013-3-10,60,50,39,41,20,12,55,28,16,30.21,30.06,29.89,10,10,10,22,10,31,0.00,1,,348
2013-3-11,71,48,26,19,15,10,51,30,13,30.23,30.15,30.04,10,10,9,9,2,18,0.00,0,,337
2013-3-12,78,54,30,28,18,12,51,28,9,30.32,30.16,30.08,10,10,10,18,3,23,0.00,0,Rain,313
2013-3-13,75,58,42,34,30,28,61,37,18,30.45,30.36,30.29,10,10,10,15,7,22,0.00,0,,116
2013-3-14,75,62,50,48,39,32,82,44,22,30.38,30.31,30.24,10,10,6,20,8,23,0.00,0,,185
2013-3-15,80,66,53,52,43,36,82,46,21,30.26,30.14,30.01,10,10,9,15,7,23,0.00,0,,188
2013-3-16,87,71,55,48,41,32,72,39,14,30.01,29.88,29.75,10,10,10,16,10,23,0.00,0,,189
2013-3-17,84,70,55,57,42,23,94,45,11,29.89,29.80,29.73,10,10,6,13,7,21,0.00,1,,246
2013-3-18,80,61,42,36,28,18,57,28,11,30.02,29.92,29.81,10,10,8,15,3,23,0.00,0,,12
2013-3-19,82,63,44,52,41,34,71,43,23,30.09,29.99,29.89,10,10,8,21,5,32,0.00,0,,186
2013-3-20,71,61,51,46,36,30,63,40,23,30.33,30.18,30.03,10,10,9,20,13,25,0.00,2,,77
2013-3-21,78,66,53,55,49,37,72,55,37,30.04,29.80,29.64,10,10,8,25,13,30,0.00,1,,188
2013-3-22,80,64,48,61,49,37,100,59,23,29.80,29.75,29.71,10,9,0,16,7,22,0.00,0,Fog,9
2013-3-23,86,70,53,54,31,5,67,36,7,29.90,29.77,29.67,10,10,2,28,8,40,0.00,3,,329
2013-3-24,60,48,35,37,17,9,71,34,14,30.28,30.14,29.90,10,10,3,29,14,40,0.00,0,,6
2013-3-25,57,45,33,14,7,0,44,23,11,30.40,30.29,30.17,10,10,10,13,7,17,0.00,0,,69
2013-3-26,64,48,32,19,15,9,48,26,13,30.47,30.36,30.25,10,10,9,18,7,24,0.00,0,,157
2013-3-27,69,56,44,46,35,18,67,45,26,30.26,30.20,30.12,10,10,10,21,10,29,0.00,0,,177
2013-3-28,75,65,55,57,51,46,82,64,44,30.19,30.15,30.10,10,10,10,18,11,25,0.00,3,,176
2013-3-29,71,66,60,57,56,54,82,71,57,30.18,30.14,30.08,10,10,10,17,12,23,0.00,5,,179
2013-3-30,84,72,59,61,57,50,94,69,30,30.12,30.06,29.94,10,10,8,16,8,22,0.00,4,,185
2013-3-31,82,68,55,64,57,50,94,68,35,30.04,29.98,29.93,10,8,4,14,4,18,0.02,0,Thunderstorm,70